Location: Kaseke
(18.0171°S, 31.0526°E)
Time: 12:46:03
(UTC+00:00)

Hubble Space Telescope - Pass Details

Date: 14 July 2020
Orbit: 536 x 540 km, 28.5° (Epoch: 08 August)

Event Time Altitude Azimuth Distance (km) Brightness Sun altitude
Exits shadow 02:21:17 27° 110° (ESE) 1,051 2.7 -29.3°
Drops below altitude 10° 02:23:16 10° 112° (ESE) 1,796 4.1 -28.8°
Sets 02:25:33 0° 112° (ESE) 2,690 5.1 -28.3°
